Location: Newark
(25.0000°N, 73.5000°E)
Time: 04:03:30
(UTC+00:00)

Altair - Pass Details

Date: 10 March 2021
Orbit: 1501 x 1683 km, 47.2° (Epoch: 12 April)

Event Time Altitude Azimuth Distance (km) Brightness Sun altitude
Rises 16:14:16 0° 315° (NW) 4,667 10.7 -41.5°
Reaches altitude 10° 16:18:11 10° 329° (NNW) 3,707 9.9 -42.3°
Enters shadow 16:23:49 23° 7° (N) 2,863 8.9 -43.5°
Maximum altitude 16:25:22 24° 20° (NNE) 2,823 - -43.9°
Drops below altitude 10° 16:32:43 10° 71° (ENE) 3,812 - -45.4°
Sets 16:36:47 0° 84° (E) 4,828 - -46.3°
